Visibility
15.0 15.0 0.4 0.1 0.1 0.2 0.3 0.1 1.0 3.3 4.4 4.0 4.8 5.5 5.3 10.8 13.8 15.0 15.0 15.0 15.0 15.0 15.0 15.0 15.0 15.0 15.0
15.0 0.2 0.2 0.2 0.2 0.1 0.1 0.2 1.4 4.6 3.4 4.0 4.8 5.3 4.1 8.3 15.0 15.0 15.0 15.0 15.0 15.0 15.0 15.0 15.0 15.0 15.0
2.1 15.0 0.5 0.2 0.1 0.3 0.2 0.1 1.0 4.3 7.6 5.4 6.9 4.7 4.9 9.0 15.0 15.0 15.0 15.0 15.0 15.0 15.0 15.0 15.0 15.0 15.0
15.0 15.0 2.5 0.2 13.6 0.2 0.2 3.3 8.4 15.0 15.0 8.4 12.8 12.2 14.8 15.0 15.0 15.0 15.0 15.0 15.0 15.0 15.0 15.0 15.0 15.0 15.0
6.5 15.0 0.1 0.1 0.1 0.5 0.5 15.0 15.0 15.0 15.0 15.0 15.0 15.0 15.0 15.0 15.0 15.0 15.0 15.0 15.0 15.0 15.0 15.0 15.0 15.0 15.0
7.5 15.0 15.0 0.1 0.4 0.2 2.4 0.7 0.3 15.0 15.0 15.0 13.7 15.0 15.0 15.0 15.0 15.0 15.0 15.0 15.0 15.0 15.0 15.0 15.0 15.0 15.0
2.8 10.5 15.0 9.1 13.0 6.8 15.0 15.0 14.7 0.7 1.9 0.7 11.5 15.0 15.0 15.0 15.0 15.0 15.0 15.0 15.0 15.0 15.0 15.0 15.0 15.0 15.0
5.9 9.6 15.0 15.0 8.1 15.0 15.0 9.6 15.0 7.7 9.0 0.4 0.2 0.3 15.0 15.0 15.0 15.0 15.0 15.0 15.0 15.0 15.0 15.0 15.0 15.0 15.0
14.9 9.1 6.4 7.2 15.0 15.0 3.8 14.9 1.2 0.2 2.1 14.9 13.5 15.0 15.0 15.0 15.0 15.0 15.0 15.0 15.0 15.0 15.0 15.0 15.0 15.0 15.0
0.2 1.3 6.7 9.3 11.7 12.4 8.5 15.0 15.0 0.3 0.8 15.0 15.0 15.0 15.0 15.0 15.0 15.0 15.0 15.0 15.0 15.0 15.0 15.0 15.0 15.0 15.0
15.0 15.0 15.0 15.0 15.0 15.0 15.0 15.0 15.0 15.0 15.0 15.0 15.0 15.0 15.0 15.0 15.0 15.0 15.0 15.0 15.0 15.0 15.0 15.0 15.0 15.0 15.0
14.5 11.6 11.8 15.0 14.9 15.0 15.0 15.0 15.0 15.0 15.0 15.0 15.0 15.0 15.0 15.0 15.0 15.0 15.0 15.0 15.0 15.0 15.0 15.0 15.0 15.0 15.0
1.2 6.3 3.0 8.9 15.0 15.0 15.0 15.0 15.0 15.0 15.0 15.0 15.0 15.0 15.0 15.0 15.0 15.0 15.0 15.0 15.0 15.0 15.0 15.0 15.0 15.0 15.0
0.6 1.7 15.0 15.0 15.0 15.0 15.0 15.0 15.0 15.0 15.0 15.0 15.0 15.0 15.0 15.0 15.0 15.0 15.0 15.0 15.0 15.0 15.0 15.0 15.0 15.0 15.0
6.4 15.0 15.0 15.0 15.0 15.0 15.0 15.0 15.0 15.0 15.0 15.0 15.0 15.0 15.0 15.0 15.0 15.0 15.0 15.0 15.0 15.0 15.0 15.0 15.0 15.0 15.0
15.0 15.0 15.0 15.0 15.0 15.0 15.0 15.0 15.0 15.0 15.0 15.0 15.0 15.0 15.0 15.0 15.0 15.0 15.0 15.0 15.0 15.0 15.0 15.0 15.0 15.0 15.0
15.0 15.0 15.0 15.0 15.0 15.0 15.0 15.0 15.0 15.0 15.0 15.0 15.0 15.0 15.0 15.0 15.0 15.0 15.0 15.0 15.0 15.0 15.0 15.0 15.0 15.0 15.0